Zermatt, Switzerland 16 day weather forecast

Slopes altitude range 1620 m - 3820m

Number of lifts: 34 Pistes: 200km

In some cases the lift and piste totals shown are for the ski domain (e.g. Three Valleys) rather than individual resort (e.g. Courchevel)

Overview

The 16 day weather forecast is fully updated 4 times every day.

    • Sat 20 APR 2019
    • Sat 20
    • -1C 4C
    • Sun 21 APR 2019
    • Sun 21
    • 0C 5C
    • Mon 22 APR 2019
    • Mon 22
    • 0C 4C
    • Tue 23 APR 2019
    • Tue 23
    • -1C 0C
    • Wed 24 APR 2019
    • Wed 24
    • 0C 1C
    • Thu 25 APR 2019
    • Thu 25
    • 0C 1C
    • Fri 26 APR 2019
    • Fri 26
    • -5C -3C
    • Sat 27 APR 2019
    • Sat 27
    • -4C 1C
    • Sun 28 APR 2019
    • Sun 28
    • 1C 4C
    • Mon 29 APR 2019
    • Mon 29
    • 2C 4C
    • Tue 30 APR 2019
    • Tue 30
    • 1C 8C
    • Wed 01 MAY 2019
    • Wed 01
    • 4C 6C
    • Thu 02 MAY 2019
    • Thu 02
    • 3C 6C
    • Fri 03 MAY 2019
    • Fri 03
    • 4C 9C
    • Sat 04 MAY 2019
    • Sat 04
    • 6C 11C
    • Sun 05 MAY 2019
    • Sun 05
    • 5C 10C

Date:

Time Type 0°C level Temp Chill Snow Cloud Speed Gust Dir Press
3:00 1737m -4°C -4_3 0cm 38% 3mph 3mph 1029mB
6:00 2047m -5°C -5_2 0cm 28% 2mph 2mph 1029mB
9:00 2463m -1°C -1_6 0cm 0% 6mph 6mph 1027mB
12:00 2601m 4°C 4_7 0cm 0% 7mph 7mph 1026mB
15:00 2648m 4°C 4_7 0cm 17% 7mph 7mph 1024mB
18:00 2294m 4°C 4_3 0cm 21% 3mph 3mph 1024mB
21:00 1971m -3°C -3_2 0cm 40% 2mph 2mph 1026mB
0:00 2094m -3°C -3_2 0cm 69% 2mph 3mph 1026mB
3:00 2078m -2°C -2_2 0cm 100% 2mph 3mph 1024mB
6:00 2272m -2°C -2_2 0cm 100% 2mph 3mph 1023mB
9:00 2517m 0°C 0_6 0cm 100% 6mph 7mph 1021mB
12:00 2639m 5°C 5_8 0cm 98% 8mph 8mph 1019mB
15:00 2629m 5°C 5_7 0cm 96% 7mph 7mph 1017mB
18:00 2520m 5°C 5_4 1cm 96% 4mph 5mph 1017mB
21:00 2413m 0°C 0_3 1cm 96% 3mph 4mph 1019mB
0:00 2118m -2°C -2_3 1cm 96% 3mph 4mph 1018mB
3:00 2221m -2°C -2_3 1cm 96% 3mph 4mph 1016mB
6:00 2290m -2°C -2_3 1cm 96% 3mph 4mph 1014mB
9:00 2399m 0°C 0_7 1cm 96% 7mph 7mph 1011mB
12:00 2550m 4°C 4_8 1cm 95% 8mph 9mph 1008mB
15:00 2545m 4°C 4_8 1cm 88% 8mph 8mph 1005mB
18:00 2388m 4°C 4_7 1cm 92% 7mph 8mph 1005mB
21:00 2407m 0°C 0_8 2cm 100% 8mph 10mph 1005mB
0:00 2314m 0°C 0_6 4cm 100% 6mph 8mph 1004mB
3:00 2245m -1°C -1_2 4cm 100% 2mph 4mph 1002mB
6:00 2217m -1°C -1_2 4cm 100% 2mph 4mph 1001mB
9:00 2281m -1°C -1_4 5cm 100% 4mph 6mph 1001mB
12:00 2361m 0°C 0_4 5cm 100% 4mph 5mph 1000mB
15:00 2471m 1°C 1_4 5cm 100% 4mph 5mph 1000mB
18:00 2505m 1°C 1_3 6cm 100% 3mph 5mph 1001mB
21:00 2513m 0°C 0_4 5cm 100% 4mph 6mph 1004mB
0:00 2529m 0°C 0_4 5cm 100% 4mph 5mph 1006mB
3:00 2481m 0°C 0_5 4cm 99% 5mph 8mph 1007mB
6:00 2422m 0°C 0_7 3cm 99% 7mph 9mph 1008mB
9:00 2444m 0°C 0_9 3cm 99% 9mph 11mph 1009mB
12:00 2508m 1°C 1_9 3cm 99% 9mph 12mph 1009mB
15:00 2588m 2°C 2_9 9cm 99% 9mph 12mph 1009mB
18:00 2608m 2°C 2_10 13cm 100% 10mph 14mph 1010mB
21:00 2594m 1°C 1_9 17cm 100% 9mph 12mph 1012mB
0:00 2577m 1°C 1_9 16cm 100% 9mph 13mph 1012mB
3:00 2544m 1°C 1_9 8cm 100% 9mph 12mph 1012mB
6:00 2473m 0°C 0_9 6cm 100% 9mph 12mph 1013mB
9:00 2449m 0°C 0_9 5cm 100% 9mph 12mph 1012mB
12:00 2440m 1°C 1_8 3cm 100% 8mph 11mph 1010mB
15:00 2471m 1°C 1_8 2cm 100% 8mph 11mph 1010mB
18:00 2467m 1°C 1_8 3cm 99% 8mph 12mph 1010mB
21:00 2380m 0°C 0_10 6cm 100% 10mph 14mph 1011mB
0:00 2288m -1°C -1_11 6cm 100% 11mph 15mph 1011mB
3:00 2091m -2°C -2_4 17cm 100% 4mph 6mph 1011mB
6:00 1601m -5°C -5_11 17cm 100% 11mph 14mph 1012mB
9:00 1707m -5°C -5_12 4cm 100% 12mph 16mph 1014mB
12:00 1826m -3°C -3_13 3cm 100% 13mph 16mph 1014mB
15:00 1857m -3°C -3_13 1cm 100% 13mph 17mph 1015mB
18:00 1690m -3°C -3_14 1cm 100% 14mph 18mph 1017mB
21:00 1451m -5°C -5_14 1cm 80% 14mph 19mph 1020mB
0:00 1524m -5°C -5_14 1cm 89% 14mph 17mph 1021mB
3:00 1607m -5°C -5_14 1cm 100% 14mph 17mph 1021mB
6:00 1688m -5°C -5_14 0cm 99% 14mph 18mph 1022mB
9:00 2159m -4°C -4_12 0cm 98% 12mph 16mph 1022mB
12:00 2361m 1°C 1_11 0cm 96% 11mph 14mph 1021mB
15:00 2504m 1°C 1_11 0cm 98% 11mph 14mph 1021mB
18:00 2398m 1°C 1_10 0cm 97% 10mph 12mph 1023mB
21:00 2194m -2°C -2_10 0cm 93% 10mph 10mph 1025mB
0:00 2076m -3°C -3_9 0cm 93% 9mph 9mph 1025mB
3:00 2166m -3°C -3_9 0cm 93% 9mph 9mph 1023mB
6:00 2540m -3°C -3_8 0cm 93% 8mph 8mph 1022mB
9:00 3010m 1°C 1_4 0cm 84% 4mph 4mph 1020mB
12:00 2953m 4°C 4_3 0cm 71% 3mph 3mph 1019mB
15:00 2954m 4°C 4_5 0cm 78% 5mph 5mph 1018mB
18:00 2862m 4°C 4_5 0cm 75% 5mph 6mph 1018mB
21:00 2355m -1°C -1_6 0cm 44% 6mph 7mph 1021mB
0:00 2456m -1°C -1_5 0cm 35% 5mph 5mph 1020mB
3:00 2430m 0°C 0_4 1cm 49% 4mph 4mph 1019mB
6:00 2759m 0°C 0_3 0cm 71% 3mph 3mph 1018mB
9:00 2842m 2°C 2_1 0cm 87% 1mph 1mph 1016mB
12:00 2960m 4°C 4_2 0cm 75% 2mph 3mph 1014mB
15:00 3011m 4°C 4_1 0cm 92% 1mph 2mph 1013mB
18:00 2978m 4°C 4_3 0cm 93% 3mph 3mph 1013mB
21:00 2827m 1°C 1_5 0cm 60% 5mph 5mph 1015mB
0:00 2470m 0°C 0_4 0cm 48% 4mph 4mph 1015mB
Afternoon 0.0625mm 0.25 2854m 8°C 8_6 0cm 38% 6mph 8mph 1011mB
Morning 0.359375mm 2 2902m 5°C 5_5 0cm 83% 5mph 7mph 1011mB
Afternoon 0.119792mm 0.125 2573m 6°C 6_9 0cm 97% 9mph 11mph 1009mB
Morning 0.3125mm 0 2642m 2°C 2_5 0cm 83% 5mph 10mph 1011mB
Afternoon 1.39062mm 0.0625 2800m 6°C 6_7 0cm 99% 7mph 10mph 1010mB
Morning 0.864583mm 0.125 2972m 4°C 4_0 0cm 90% 0mph 2mph 1012mB
Afternoon 0.5mm 0.4375 3049m 9°C 9_6 0cm 62% 6mph 7mph 1010mB
Morning 2.46354mm 5.125 3083m 6°C 6_4 0cm 94% 4mph 6mph 1013mB
Afternoon 0.463542mm 2.125 3265m 11°C 11_3 0cm 89% 3mph 3mph 1010mB
Morning 1.58333mm 14.6875 3328m 7°C 7_4 0cm 97% 4mph 4mph 1013mB
Afternoon 0.583333mm 4.9375 3287m 10°C 10_5 0cm 83% 5mph 6mph 1011mB
Morning 1.89583mm 7.9375 3179m 6°C 6_4 0cm 99% 4mph 5mph 1013mB

16 day outlook at a glance

Forecast issued: 20/04/2019 07:09:38

Chat

Your comments and questions. In a resort? Let us know what it's like!


Characters left 250

For terms and conditions see Readers Comments on the Cookie and privacy policy page.